Theta_e
335 338 334 327 316 318 312 314 323 322 323 332 331 330 327 329 326 322 348 359 360 360 360 361 367 364 363 361 361 360 359 358 358 358 359 361 361 361 361 360 360 359 359 359 359 359 357 358 358
324 327 327 322 313 309 310 319 319 325 330 332 332 331 330 328 337 341 348 356 360 360 360 362 366 365 362 361 361 361 360 359 358 357 356 357 358 359 359 359 358 358 358 358 358 358 357 358 359
325 327 321 318 316 309 310 320 323 329 332 331 330 336 336 335 341 342 350 351 360 360 362 365 366 366 363 362 361 361 361 360 359 358 357 355 354 355 356 357 358 358 358 357 356 357 357 358 359
325 328 324 313 310 315 316 322 328 328 331 332 332 321 331 347 344 345 355 353 355 358 359 363 365 366 365 363 362 361 360 360 360 359 357 356 355 354 353 355 357 357 357 358 358 359 360 360 360
323 324 315 312 311 314 317 324 328 324 327 325 319 316 325 342 344 354 354 348 357 357 357 356 363 364 364 361 361 360 360 360 360 359 359 357 357 357 357 355 354 356 357 359 359 361 361 361 361
316 319 311 308 310 314 316 326 328 324 326 320 316 319 333 345 348 355 356 357 359 357 356 356 360 362 361 361 360 359 359 358 358 358 358 358 358 358 358 359 358 357 356 357 359 361 362 361 360
315 315 312 312 312 312 314 325 323 323 322 318 317 315 338 342 350 356 358 358 354 353 350 353 358 357 358 357 359 358 358 359 358 358 357 357 357 357 359 359 359 359 360 360 359 359 359 360 361
316 316 309 312 310 311 315 321 327 321 315 317 317 315 327 345 347 351 350 346 345 346 346 345 343 339 339 341 349 351 350 350 350 350 348 349 354 357 358 357 358 360 360 360 360 359 358 358 359
315 311 308 309 310 312 316 317 323 318 315 315 316 317 332 347 345 344 340 338 337 336 335 335 333 333 333 331 336 346 347 347 347 346 347 343 338 341 341 347 352 355 356 358 359 359 359 358 358
314 311 309 312 313 312 316 319 317 317 313 313 316 324 338 343 340 336 332 331 331 330 329 331 333 329 330 329 334 335 335 337 339 338 339 335 339 339 339 345 350 352 353 356 357 357 359 359 353
312 309 311 310 311 314 313 314 315 314 312 315 314 322 333 336 336 332 329 329 329 329 329 330 335 337 331 330 331 331 332 333 333 337 339 339 338 337 335 335 335 338 346 339 347 354 357 359 356
308 310 311 310 310 311 310 313 311 312 312 313 319 326 333 333 332 331 328 328 328 328 329 331 334 335 338 332 332 331 330 331 331 333 337 335 334 336 337 335 336 335 335 338 340 342 352 354 355
309 310 310 310 310 311 311 309 309 311 315 314 325 330 331 331 331 330 329 330 329 328 331 334 336 337 336 335 332 332 331 331 332 331 334 335 334 335 336 337 337 336 336 335 335 339 341 347 353
310 310 309 310 310 310 308 309 311 314 316 312 321 326 328 330 330 328 329 328 329 331 333 335 335 338 337 335 334 331 331 331 330 331 334 335 334 336 334 334 333 334 336 337 338 337 338 341 344
311 307 309 308 309 308 311 307 308 314 313 313 318 324 327 329 329 328 329 328 330 332 335 334 334 336 336 334 333 330 329 328 329 330 334 334 335 335 336 333 332 333 336 338 338 338 339 338 340
307 307 304 308 308 308 308 304 311 315 314 313 317 322 324 326 326 328 328 331 332 333 332 334 331 332 334 334 331 328 328 327 327 327 328 330 331 332 332 329 331 334 335 335 335 336 336 338 337
306 301 303 304 308 308 307 305 311 315 314 312 316 319 322 324 325 328 329 331 332 333 333 332 333 331 332 333 330 330 331 327 326 327 326 328 328 328 329 326 328 331 330 331 333 334 335 335 337
301 301 303 303 307 308 306 307 311 314 312 312 315 319 321 322 324 328 329 331 332 332 333 332 330 332 331 328 329 326 325 326 326 325 326 328 328 327 328 325 326 326 325 325 330 332 333 334 335
304 303 303 305 307 307 307 307 309 312 314 313 316 319 320 322 326 329 330 330 331 331 329 328 328 331 328 324 323 322 321 324 324 325 328 328 327 327 327 323 324 325 324 325 327 328 330 330 331
305 303 302 304 307 307 306 305 310 312 313 315 317 319 320 322 325 327 327 327 323 325 326 326 326 328 327 324 326 325 326 325 325 325 327 328 326 326 325 325 323 325 323 325 326 326 327 327 329
304 303 302 302 304 307 306 304 307 311 313 316 318 320 321 321 323 324 324 323 320 321 323 324 326 327 328 328 324 324 324 323 321 322 322 324 324 324 324 324 324 323 323 320 324 324 325 322 327
302 305 303 302 302 299 305 296 305 309 311 314 316 319 320 322 322 322 319 318 317 318 319 322 325 326 325 327 324 324 320 316 318 318 319 320 322 321 321 323 322 323 321 322 322 322 325 324 321
303 305 304 304 303 302 302 298 304 308 307 311 315 317 318 319 318 316 316 317 317 318 319 322 324 324 325 325 324 319 319 317 316 316 321 323 322 320 318 321 323 321 319 322 320 319 321 324 322
306 305 306 306 303 296 301 298 300 304 307 311 314 316 316 316 316 315 316 317 319 319 319 320 320 321 321 320 321 320 319 318 315 315 314 314 314 315 320 317 319 320 320 319 319 319 319 323 319
306 305 297 295 295 295 300 297 300 306 307 311 313 314 315 315 315 314 314 314 317 317 318 318 317 317 318 318 317 318 318 318 316 316 313 313 311 312 315 319 318 317 319 320 321 316 317 318 318
303 303 296 289 292 295 300 294 301 306 309 312 313 315 315 314 314 313 314 315 315 316 317 316 316 316 316 316 315 316 317 313 312 314 313 311 311 314 316 317 317 317 318 319 320 318 315 316 317
303 301 304 299 300 294 298 300 304 306 307 308 309 311 312 313 313 313 315 316 315 316 316 315 315 315 315 314 314 314 314 313 312 314 314 313 315 315 316 313 312 314 318 313 315 316 314 314 313
305 305 299 301 290 289 295 295 297 302 304 307 308 309 312 313 313 314 315 315 316 316 316 316 316 314 314 313 313 313 311 312 313 313 312 313 313 313 312 310 310 310 311 311 314 311 311 310 310
303 301 300 299 297 291 290 297 304 304 305 306 307 309 311 312 313 314 314 315 315 316 315 315 314 313 312 312 312 311 310 311 311 309 310 309 308 311 310 308 308 308 308 310 310 309 307 307 308
303 301 300 296 293 296 295 295 306 305 306 307 307 309 310 312 313 313 313 313 314 314 314 314 313 312 311 311 309 309 311 310 308 309 307 308 307 308 308 308 306 306 306 306 306 305 306 306 307
Wind_Speed
9 9 5 6 8 7 10 8 6 9 5 7 7 6 10 8 9 8 6 7 8 11 10 13 9 10 10 12 11 9 9 9 9 8 7 7 7 6 5 5 5 6 5 5 5 5 5 3 3
4 6 6 6 8 7 8 8 11 8 8 5 5 4 7 15 12 9 8 8 7 10 8 12 10 9 12 10 11 11 9 9 8 7 6 5 5 4 4 4 4 4 4 5 6 6 7 7 6
9 8 7 5 5 9 11 5 9 7 7 4 3 4 3 10 12 6 6 5 8 10 11 11 10 9 12 11 10 9 10 8 7 7 5 4 3 2 1 2 3 5 6 6 7 8 8 9 9
6 7 7 11 8 11 10 8 8 9 6 2 4 8 11 8 6 6 4 3 8 11 14 11 9 9 11 11 10 10 9 9 7 6 4 2 1 1 2 3 4 6 8 8 9 9 9 10 10
6 6 5 7 8 7 5 1 10 8 6 5 1 7 8 8 11 9 10 10 11 13 12 12 8 8 9 9 8 8 8 7 7 6 5 3 2 3 4 5 7 8 9 10 11 11 11 11 11
8 5 8 9 8 5 3 7 6 4 6 6 4 11 8 9 8 10 11 13 13 12 11 12 9 8 9 9 8 8 8 7 7 7 5 4 3 4 6 7 8 10 11 12 12 12 11 12 13
14 7 5 2 14 9 10 6 8 6 5 3 5 7 10 11 9 11 13 14 14 11 10 8 12 13 17 16 15 13 11 10 9 8 8 7 7 6 7 8 10 11 11 12 13 13 13 12 12
6 8 7 9 8 14 9 11 1 7 9 7 2 5 12 12 10 13 14 14 13 10 10 9 9 8 9 13 11 11 10 8 8 6 8 8 10 9 12 11 13 13 13 14 15 15 15 15 14
4 8 9 7 8 9 11 10 4 3 8 4 3 7 12 15 13 12 12 12 11 11 11 11 10 9 10 11 9 10 8 5 3 3 3 8 9 10 12 10 8 9 13 16 17 17 17 16 16
9 10 4 5 2 5 13 11 9 8 8 5 7 11 12 14 10 10 9 10 12 12 13 12 10 10 11 9 10 10 9 9 10 11 11 9 9 8 10 10 10 13 14 15 18 18 17 16 13
5 9 9 6 1 5 12 8 4 9 10 7 8 13 13 12 8 9 9 10 13 12 11 13 11 11 11 10 7 6 6 6 7 10 11 10 9 8 8 8 8 10 8 10 9 11 13 15 12
7 5 1 6 4 4 8 7 6 6 9 7 9 12 12 12 11 9 10 10 10 12 12 12 13 11 11 8 8 8 7 7 7 9 11 10 8 9 9 8 11 10 9 12 11 9 12 14 14
5 9 8 6 4 4 5 8 7 6 10 5 8 8 11 11 11 11 11 10 10 11 12 12 12 12 11 10 8 8 9 8 9 9 10 9 10 9 10 10 10 10 11 11 11 12 12 15 15
5 8 9 4 7 5 8 9 5 8 10 4 9 9 10 13 13 13 12 10 10 10 10 10 11 10 9 9 9 7 7 8 8 8 9 12 10 9 10 11 11 10 10 11 12 13 14 14 15
8 9 9 3 4 7 8 11 5 6 5 7 11 10 11 12 12 11 10 11 10 9 9 7 7 8 7 8 7 7 7 8 7 8 8 9 10 11 11 11 11 11 11 14 11 13 13 14 14
8 6 11 7 7 5 9 14 8 6 3 10 12 11 12 13 11 11 11 10 8 8 7 6 6 8 9 8 7 7 7 7 7 7 7 9 11 10 10 9 9 12 12 11 11 11 11 14 15
9 12 10 8 4 5 12 8 5 6 4 10 13 13 13 11 11 11 10 9 7 6 6 7 8 11 11 10 9 9 9 8 9 8 8 11 11 11 10 10 10 13 11 11 10 9 12 13 14
6 9 6 6 6 5 7 3 4 6 5 9 12 13 12 12 12 11 9 7 6 6 7 8 9 11 11 8 8 8 8 9 9 9 9 12 10 12 11 11 10 10 10 12 12 15 13 12 14
5 5 8 6 3 2 1 1 4 4 1 7 10 12 13 11 10 10 7 4 4 6 7 9 10 11 10 9 10 10 11 11 10 10 12 13 12 14 14 12 13 12 11 12 14 14 16 13 13
7 7 4 5 3 7 4 3 2 3 1 5 10 12 13 12 12 9 6 4 5 5 7 8 9 10 9 8 8 9 9 11 10 11 11 14 15 17 15 15 15 14 13 15 11 14 13 13 10
3 5 3 6 4 5 6 11 7 4 5 5 9 11 13 13 11 8 6 2 3 6 7 7 8 9 9 10 9 9 10 11 11 11 13 13 16 18 18 19 16 16 14 12 13 12 15 12 13
7 2 2 3 7 8 6 8 10 8 8 10 11 12 12 10 8 7 5 2 3 5 4 6 7 9 9 9 10 12 12 13 12 13 13 13 17 19 19 18 17 16 14 14 12 12 11 10 11
7 2 4 6 11 8 13 9 11 9 10 12 13 14 11 10 9 7 3 2 3 3 6 6 8 9 10 11 12 13 15 14 14 14 17 16 16 17 19 18 17 15 14 13 9 11 12 9 9
6 7 9 9 9 12 4 6 9 10 13 14 14 14 12 10 7 4 2 1 1 4 6 7 8 9 12 14 16 17 18 17 15 16 15 14 13 13 15 18 13 15 15 13 9 9 13 10 8
7 8 8 7 8 5 5 7 7 1 1 10 15 14 11 7 7 6 6 5 3 6 7 8 10 13 14 16 17 18 18 18 19 17 13 12 12 13 12 16 15 12 14 15 13 7 12 10 7
4 6 7 10 11 11 9 7 7 5 6 2 4 11 8 7 7 6 3 6 7 5 8 10 13 15 16 17 18 17 18 12 13 13 13 12 13 11 15 15 15 15 13 13 12 8 7 8 8
6 6 7 10 11 10 7 4 9 6 6 4 4 3 7 7 6 6 6 7 7 8 9 11 14 16 17 19 17 17 15 13 13 14 15 12 15 11 15 10 12 14 12 8 8 7 7 7 7
6 4 6 5 6 10 3 4 5 6 3 4 6 4 7 5 6 7 7 7 7 8 10 11 14 17 18 19 16 15 15 14 12 13 14 16 13 13 11 8 9 10 7 6 7 5 6 7 5
5 6 3 6 6 9 9 3 8 7 7 9 11 9 7 5 8 8 9 10 10 12 12 13 15 18 18 18 17 16 15 13 12 10 11 7 9 10 9 8 8 6 5 5 5 5 5 6 6
4 3 4 5 5 4 7 7 7 6 8 7 6 3 5 8 11 13 14 15 14 13 13 15 15 17 18 18 14 14 13 12 10 10 10 10 9 9 8 9 7 7 6 6 6 6 6 6 6
Wind_Direction
213 193 210 228 233 233 126 107 99 112 126 47 83 14 43 39 360 56 116 78 107 97 117 115 113 109 100 103 94 80 78 83 82 75 79 98 107 111 122 143 163 174 182 192 214 226 233 248 258
213 171 222 274 239 170 103 138 127 84 70 100 119 134 74 82 72 88 114 93 97 114 108 92 106 108 104 96 99 104 96 95 93 90 87 89 101 123 142 159 180 204 227 231 227 234 242 249 254
234 226 263 264 256 120 124 136 109 107 131 121 110 20 24 47 57 72 68 85 120 115 108 104 107 113 102 101 102 105 101 98 95 96 98 103 101 118 160 199 225 231 234 242 253 253 251 252 250
214 201 222 237 193 65 95 120 125 142 151 168 50 86 97 12 58 83 70 91 128 131 104 108 111 116 114 117 120 121 114 105 99 91 83 76 100 184 231 238 243 252 253 251 249 249 253 257 255
227 253 192 148 168 120 120 105 167 152 139 126 210 99 80 76 101 89 84 117 123 110 122 113 109 111 111 109 105 99 102 111 123 125 132 158 196 241 252 254 251 250 256 261 255 248 241 238 244
229 275 187 160 154 164 157 157 185 161 122 106 148 100 72 122 107 91 96 101 107 111 115 114 102 87 74 73 77 68 64 57 46 37 21 4 321 288 271 264 263 260 256 256 259 267 265 250 241
264 231 153 238 170 201 172 197 203 168 156 130 58 74 111 130 97 95 95 93 88 98 97 100 112 112 84 58 61 59 55 51 44 35 16 355 326 304 291 275 268 264 260 258 254 251 254 257 257
272 269 169 201 184 203 152 187 150 186 91 110 322 117 146 129 126 114 107 103 104 100 99 105 103 87 68 86 71 69 58 50 53 49 14 325 273 242 239 242 241 252 252 250 251 251 249 247 246
262 247 209 186 224 142 158 167 150 42 139 124 56 51 106 131 136 119 112 109 105 104 92 67 80 89 73 73 87 123 117 117 79 51 27 309 4 334 324 341 330 294 277 273 261 251 248 247 248
248 246 243 43 294 196 163 189 148 174 157 139 135 112 126 137 151 137 123 112 104 92 78 77 54 69 71 65 54 54 40 35 29 18 3 2 351 348 311 287 258 255 254 255 256 256 250 244 256
175 259 106 139 149 189 149 138 178 212 192 152 163 138 139 134 127 112 110 100 95 93 85 82 74 50 48 57 35 32 39 18 11 14 1 355 337 356 335 325 322 325 281 282 265 245 224 236 246
175 97 103 104 121 168 178 128 102 30 29 0 30 120 138 139 131 133 124 105 95 88 81 71 57 56 40 27 30 18 15 6 359 0 359 346 341 347 340 329 326 313 317 313 291 286 283 275 264
168 121 99 112 139 142 142 187 131 57 0 9 112 141 140 128 136 122 107 104 104 88 74 60 47 39 28 32 22 11 1 5 347 353 3 347 338 345 332 330 316 316 316 309 307 297 288 288 265
130 125 120 120 128 142 173 131 207 33 340 199 158 141 149 149 144 135 129 118 104 91 70 57 52 42 32 27 10 355 10 351 353 351 360 343 340 346 330 324 327 319 323 324 314 302 300 288 282
138 158 151 123 135 127 136 161 94 2 326 180 170 160 152 153 151 139 128 121 104 83 66 50 52 38 27 10 359 349 11 346 353 347 344 356 341 350 342 333 325 324 331 307 305 312 301 286 268
192 235 209 106 196 145 219 167 99 3 297 194 182 169 163 147 138 138 125 109 103 86 79 68 37 34 14 15 359 353 14 341 352 347 343 4 338 350 331 328 327 340 317 318 320 311 305 303 291
197 240 217 131 166 174 219 128 48 358 276 220 188 180 163 148 146 134 126 114 98 90 63 41 27 20 6 6 354 346 350 347 345 344 351 357 343 345 340 327 334 331 322 324 319 319 310 303 291
177 214 206 178 105 213 206 130 42 4 282 209 194 185 162 168 150 137 128 110 98 72 48 26 15 16 1 354 340 341 331 340 333 338 351 340 336 339 337 322 336 319 324 319 324 315 311 304 297
251 240 176 105 89 239 346 290 25 19 120 180 187 171 181 159 147 145 123 118 103 51 30 19 13 11 356 349 341 339 336 329 323 325 322 327 327 331 326 322 322 320 322 314 313 311 314 312 319
203 197 154 128 119 273 206 232 68 50 95 185 178 178 168 162 164 145 145 121 77 41 20 17 12 2 349 336 334 325 312 315 314 299 313 317 320 322 318 321 316 320 311 307 309 311 310 307 314
200 279 156 326 153 239 229 221 200 129 145 166 181 177 177 178 160 164 157 111 25 34 23 14 353 340 331 324 309 308 306 301 306 312 315 309 319 310 312 310 310 308 304 305 316 309 310 307 306
212 119 229 222 248 292 205 291 178 173 171 184 179 184 177 158 166 164 176 161 76 41 20 355 336 323 318 323 316 318 300 305 320 298 310 317 306 311 299 300 302 300 301 298 305 313 306 298 299
47 171 268 279 273 297 199 247 112 172 201 193 189 188 171 180 180 179 183 93 70 24 356 328 322 320 322 316 310 309 307 313 310 310 310 309 294 295 307 298 295 298 295 305 310 297 303 298 292
135 225 234 251 261 245 97 272 180 174 224 190 192 189 187 188 190 196 152 128 332 294 314 328 321 319 319 320 313 309 304 303 305 308 299 296 325 307 294 297 304 302 301 292 287 305 296 304 304
230 256 283 251 209 293 106 263 297 271 217 201 193 192 191 196 208 216 224 247 293 305 324 315 328 324 329 324 318 313 309 305 300 305 312 312 304 306 304 310 304 297 299 291 293 298 297 307 304
333 320 297 305 304 318 157 255 89 23 68 21 296 186 182 212 222 242 261 281 296 312 308 325 328 332 331 328 324 318 313 312 308 303 306 312 304 311 306 304 312 305 300 309 303 299 307 303 308
115 259 16 287 250 263 269 113 162 128 122 130 120 175 213 223 241 252 266 272 286 309 320 330 335 329 332 329 323 316 316 316 305 306 308 299 310 305 314 329 321 310 316 312 304 310 306 315 314
310 29 253 227 287 301 261 244 324 98 94 142 191 233 228 242 260 262 275 285 298 309 319 329 331 332 330 326 319 316 323 309 312 324 326 319 311 325 325 332 317 315 325 313 313 336 330 322 321
217 230 230 301 290 292 300 37 50 54 36 355 335 356 346 297 282 289 298 310 317 311 314 327 331 328 325 323 322 317 318 317 322 319 324 316 318 317 330 334 338 350 337 331 344 343 330 323 323
296 321 283 278 262 279 305 282 69 38 356 343 347 345 342 320 316 317 318 312 297 297 310 326 327 324 326 321 323 316 319 319 335 320 341 327 331 337 337 347 349 351 352 349 349 341 335 327 319